Weather History for Salt Lake City, UT

Change the Weather History Date:

Sunday, October 24, 2010

  Actual Average Record
Temperature  
Mean Temperature 53 °F 50 °F  
Max Temperature 58 °F 61 °F 78 °F (1959)
Min Temperature 47 °F 39 °F 21 °F (1935)
Degree Days  
Heating Degree Days 12 15  
Month to date heating degree days 153 262  
Since 1 July heating degree days 187 351  
Cooling Degree Days 0 0  
Month to date cooling degree days 21 5  
Year to date cooling degree days 1142 1158  
Growing Degree Days 2 (Base 50)    
Moisture  
Dew Point 45 °F    
Average Humidity 76    
Maximum Humidity 89    
Minimum Humidity 62    
Precipitation  
Precipitation 0.18 in 0.05 in 0.64 in (1956)
Month to date precipitation 0.58 1.15  
Year to date precipitation 11.53 12.87  
Snow  
Snow 0.00 in 0.10 in 6.60 in (1956)
Month to date snowfall 0.0 0.8  
Since 1 July snowfall 0.0 0.8  
Snow Depth 0.00 in    
Sea Level Pressure  
Sea Level Pressure 29.72 in    
Wind  
Wind Speed 20 mph (SSE)    
Max Wind Speed 37 mph    
Max Gust Speed 47 mph    
Visibility 10 miles    
Events Rain    
T = Trace of Precipitation, MM = Missing Value Source: NWS Daily Summary

Daily Weather History Graph

Daily Weather History Graph

Search for Another Location

Airport:

Trip Planner

Search our weather history database for the weather conditions in past years. The results will help you decide how hot, cold, wet, or windy it might be!

Date:

Astronomy

Oct. 24, 2010 Rise Set
Actual Time 7:49 AM MDT 6:34 PM MDT
Civil Twilight 7:21 AM MDT 7:02 PM MDT
Nautical Twilight 6:49 AM MDT 7:34 PM MDT
Astronomical Twilight 6:17 AM MDT 8:06 PM MDT
Moon 7:17 PM MDT (10/24) 9:35 AM MDT (10/24)
Length of Visible Light 11h 41m
Length of Day
10h 45m
Full, 97% of the Moon is Illuminated
Oct 24
Full
Oct 30
Last Quarter
Nov 5
New
Nov 13
First Quarter
Nov 21
Full

Hourly Weather History & Observations

Time (MDT) Temp. Dew Point Humidity Pressure Visibility Wind Dir Wind Speed Gust Speed Precip Events Conditions
12:53 AM 48.0 °F 43.0 °F 83% 29.94 in 10.0 mi SSE 10.4 mph - N/A   Mostly Cloudy
1:53 AM 48.0 °F 43.0 °F 83% 29.93 in 10.0 mi SE 10.4 mph - N/A   Mostly Cloudy
2:53 AM 48.0 °F 43.0 °F 83% 29.91 in 10.0 mi SE 10.4 mph - N/A   Mostly Cloudy
3:53 AM 46.9 °F 43.0 °F 86% 29.91 in 10.0 mi SE 8.1 mph - N/A   Mostly Cloudy
4:53 AM 50.0 °F 44.1 °F 80% 29.88 in 10.0 mi South 11.5 mph - N/A   Overcast
5:53 AM 51.1 °F 43.0 °F 74% 29.88 in 10.0 mi South 12.7 mph - N/A   Overcast
6:53 AM 51.1 °F 44.1 °F 77% 29.88 in 10.0 mi SSE 9.2 mph - 0.00 in Rain Light Rain
7:53 AM 52.0 °F 43.0 °F 71% 29.86 in 10.0 mi South 17.3 mph - 0.00 in   Overcast
8:53 AM 53.1 °F 43.0 °F 69% 29.84 in 10.0 mi South 13.8 mph - N/A   Overcast
9:53 AM 53.1 °F 45.0 °F 74% 29.86 in 10.0 mi South 17.3 mph 28.8 mph 0.01 in Rain Light Rain
10:53 AM 51.1 °F 46.9 °F 86% 29.84 in 7.0 mi SSE 13.8 mph - 0.07 in Rain Light Rain
11:53 AM 52.0 °F 48.0 °F 86% 29.81 in 10.0 mi SSE 19.6 mph 25.3 mph 0.04 in Rain Light Rain
12:53 PM 52.0 °F 48.0 °F 86% 29.78 in 10.0 mi South 24.2 mph 34.5 mph 0.01 in Rain Light Rain
1:53 PM 52.0 °F 46.9 °F 83% 29.74 in 10.0 mi South 26.5 mph 36.8 mph 0.01 in Rain Light Rain
2:53 PM 52.0 °F 46.9 °F 83% 29.69 in 10.0 mi South 24.2 mph 34.5 mph 0.02 in Rain Light Rain
3:53 PM 53.1 °F 46.9 °F 80% 29.67 in 10.0 mi South 26.5 mph 40.3 mph 0.02 in   Overcast
4:53 PM 54.0 °F 46.0 °F 75% 29.62 in 10.0 mi South 27.6 mph 35.7 mph 0.00 in   Overcast
5:53 PM 55.0 °F 46.0 °F 72% 29.57 in 10.0 mi South 32.2 mph 43.7 mph N/A   Overcast
6:53 PM 55.9 °F 46.0 °F 69% 29.52 in 10.0 mi South 26.5 mph 44.9 mph N/A   Overcast
7:53 PM 57.0 °F 45.0 °F 64% 29.48 in 10.0 mi South 27.6 mph 42.6 mph N/A   Overcast
8:53 PM 57.9 °F 45.0 °F 62% 29.45 in 10.0 mi South 26.5 mph 41.4 mph N/A   Overcast
9:53 PM 57.0 °F 46.0 °F 67% 29.44 in 10.0 mi South 29.9 mph 43.7 mph 0.00 in Rain Light Rain
10:53 PM 57.0 °F 45.0 °F 64% 29.42 in 10.0 mi South 24.2 mph 40.3 mph 0.00 in   Overcast
11:53 PM 55.9 °F 45.0 °F 67% 29.40 in 10.0 mi South 26.5 mph 40.3 mph 0.00 in Rain Light Rain